Regional Weather Roundup
Issued by NWS

Home | Current Version | Previous Version | Graphics & Text | Print | Product List | Glossary On
Versions: 1 2 3 4 5 6 7 8 9 10 11 12 13 14 15 16 17 18 19 20 21 22 23 24 25 26 27 28 29 30 31 32 33 34 35 36 37 38 39 40 41 42 43 44 45 46 47 48 49 50
000
ASUS43 KBIS 281810
RWRND

NORTH DAKOTA REGIONAL WEATHER ROUNDUP
NATIONAL WEATHER SERVICE BISMARCK ND
100 PM CDT WED JUN 28 2017

NOTE: "FAIR" INDICATES FEW OR NO CLOUDS BELOW 12,000 FEET WITH NO
SIGNIFICANT WEATHER AND/OR OBSTRUCTIONS TO VISIBILITY.


NDZ001>003-009>011-017-281900-
NORTHWEST NORTH DAKOTA

CITY           SKY/WX    TMP DP  RH WIND       PRES   REMARKS
WILLISTON      SUNNY     79  39  23 NE5       29.73S
6HR MIN TEMP:  50; 6HR MAX TEMP:  80;

MINOT          SUNNY     75  45  34 NW20G26   29.67R
MINOT AFB      SUNNY     74  45  35 NW21      29.66R
$$

NDZ018>021-031>035-040>046-281900-
SOUTHWEST NORTH DAKOTA

CITY           SKY/WX    TMP DP  RH WIND       PRES   REMARKS
BISMARCK       SUNNY     76  45  33 N17G23    29.68R
6HR MIN TEMP:  63; 6HR MAX TEMP:  76;

DICKINSON      MOSUNNY   78  33  19 NW10G22   29.73S
GARRISON         N/A     73  41  31 N16G23    29.68R
6HR MIN TEMP:  59; 6HR MAX TEMP:  75;

HETTINGER ARPT SUNNY     78  31  17 NW14G21   29.76S
$$

NDZ004>008-012>016-024-026-027-054-281900-
NORTHEAST NORTH DAKOTA

CITY           SKY/WX    TMP DP  RH WIND       PRES   REMARKS
GRAND FORKS    LGT RAIN  61  61 100 N12       29.54R
GRND FRKS AFB  LGT RAIN  61  61 100 N10       29.56R
DEVILS LAKE    PTSUNNY   70  60  70 NW15      29.59R
$$

NDZ022-023-025-028>030-036>039-047>053-281900-
SOUTHEAST NORTH DAKOTA

CITY           SKY/WX    TMP DP  RH WIND       PRES   REMARKS
FARGO          CLOUDY    67  63  87 W18       29.48R
6HR MIN TEMP:  65; 6HR MAX TEMP:  69; 6HR PCP:  0.15;

JAMESTOWN      CLOUDY    73  61  65 N21       29.57R
$$





USA.gov is the U.S. government's official web portal to all federal, state and local government web resources and services.